Regional Weather Roundup
Issued by NWS

Home | Current Version | Previous Version | Text Only | Print | Product List | Glossary On
Versions: 1 2 3 4 5 6 7 8 9 10 11 12 13 14 15 16 17 18 19 20 21 22 23 24 25 26 27 28 29 30 31 32 33 34 35 36 37 38 39 40 41 42 43 44 45 46 47 48 49 50
000
ASUS44 KOUN 220710
RWROK

WEATHER ROUNDUP FOR OKLAHOMA
NATIONAL WEATHER SERVICE NORMAN OK
100 AM CST SUN JAN 22 2017

NOTE: "FAIR" INDICATES FEW OR NO CLOUDS BELOW 12,000 FEET WITH NO
      SIGNIFICANT WEATHER AND/OR OBSTRUCTIONS TO VISIBILITY.

OKZ001>007-009>012-014-015-017-220800-
NORTHWEST OKLAHOMA AND THE PANHANDLE

CITY           SKY/WX    TMP DP  RH WIND       PRES   REMARKS
GAGE           PTCLDY    42  40  92 N14       29.43R
GUYMON         LGT RAIN  41  40  96 N22G31    29.54R
ENID/WOODRING  CLOUDY    45  45 100 N12       29.36R
$$

OKZ016-021>023-033>039-044-045-220800-
SOUTHWEST OKLAHOMA

CITY           SKY/WX    TMP DP  RH WIND       PRES   REMARKS
LAWTON/REGL    CLEAR     48  38  68 SW9       29.34F
LAWTON/FT SILL MOCLDY    51  38  62 SW10      29.33S
FREDERICK      CLEAR     44  37  76 SW9       29.32S
CLINTON        CLEAR     38  36  92 NW10      29.36R WCI  31
HOBART         CLEAR     40  35  83 S8        29.34S WCI  34
ALTUS AFB      CLEAR     40  31  70 W3        29.33S
$$

OKZ018>020-024>031-220800-
CENTRAL OKLAHOMA

CITY           SKY/WX    TMP DP  RH WIND       PRES   REMARKS
OKLAHOMA CITY  MOCLDY    46  41  82 NW8       29.34S
OKC/WILEY POST PTCLDY    45  43  93 N6        29.35R
OKC/TINKER AFB PTCLDY    50  41  70 W6        29.33S
STILLWATER     CLOUDY    50  42  74 N10       29.36F
GUTHRIE        CLOUDY    50  45  83 N3        29.36R
$$

OKZ008-013-054>072-220800-
NORTHEAST OKLAHOMA

CITY           SKY/WX    TMP DP  RH WIND       PRES   REMARKS
TULSA          LGT RAIN  53  51  93 E3        29.37F
TULSA/JONES    CLOUDY    55  52  89 E5        29.37F
PONCA CITY     CLOUDY    49  41  74 N6        29.40R
BARTLESVILLE   CLOUDY    49  44  83 CALM      29.41S
MUSKOGEE       MOCLDY    50  50 100 CALM      29.38F
$$

OKZ032-040>043-046>053-073>077-220800-
SOUTH CENTRAL/SOUTHEAST OKLAHOMA

CITY           SKY/WX    TMP DP  RH WIND       PRES   REMARKS
ARDMORE/DWNTWN CLEAR     48  39  71 CALM      29.36F
MCALESTER      CLOUDY    57  52  83 SE3       29.36F
$$




USA.gov is the U.S. government's official web portal to all federal, state and local government web resources and services.